"2009-01-04 00:00:00",510121,7.469,115.5,3.761,0.488,-1.366,97.10588,-8.07,-6.819,72.15,0,109.1,13.81,-7.35,77.5
"2009-01-04 00:00:30",510122,7.299,116.4,3.87,0.601,-1.479,97.10589,-8.07,-6.829,72.36,0,109.1,13.81,-7.35,78.4
"2009-01-04 00:01:00",510123,7.314,117.2,3.602,0.671,-1.517,97.10588,-8.07,-6.838,72.43,0,109.1,13.81,-7.35,79.2
"2009-01-04 00:01:30",510124,7.255,117.6,3.016,0.502,-1.408,97.10588,-8.07,-6.858,72.52,0,109.1,13.81,-7.35,79.6
"2009-01-04 00:02:00",510125,7.199,119.4,3.708,0.651,-1.582,97.10532,-8.07,-6.853,72.58,0,109.1,13.81,-7.35,81.4
"2009-01-04 00:02:30",510126,6.947,120.5,3.398,0.723,-1.517,97.10163,-8.08,-6.844,72.72,0,109.1,13.81,-7.36,82.5
"2009-01-04 00:03:00",510127,7.306,116,3.301,0.61,-1.498,97.09681,-8.09,-6.863,72.76,0,109.1,13.81,-7.37,78.0
"2009-01-04 00:03:30",510128,7.388,120.3,3.243,0.619,-1.526,97.09085,-8.11,-6.866,72.74,0,109.1,13.81,-7.38,82.3
"2009-01-04 00:04:00",510129,7.403,118.4,4.201,0.741,-1.554,97.08773,-8.12,-6.88,72.71,0,109.1,13.81,-7.39,80.4
"2009-01-04 00:04:30",510130,7.262,118.4,3.836,0.644,-1.516,97.08858,-8.11,-6.864,72.61,0,109.1,13.81,-7.39,80.4
"2009-01-04 00:05:00",510131,7.405,118.8,3.253,0.638,-1.498,97.08688,-8.12,-6.886,72.42,0,109.1,13.81,-7.39,80.8
"2009-01-04 00:05:30",510132,7.307,117.5,3.364,0.625,-1.511,97.08545,-8.12,-6.886,72.29,0,109.1,13.81,-7.40,79.5
"2009-01-04 00:06:00",510133,7.268,118,3.408,0.646,-1.568,97.08373,-8.13,-6.89,72.35,0,109.1,13.81,-7.40,80.0
"2009-01-04 00:06:30",510134,7.396,114.8,3.16,0.624,-1.503,97.08118,-8.13,-6.878,72.4,0,109.1,13.81,-7.41,76.8
"2009-01-04 00:07:00",510135,7.323,114.9,3.465,0.584,-1.485,97.07807,-8.14,-6.905,72.3,0,109.1,13.81,-7.42,76.9
"2009-01-04 00:07:30",510136,7.108,116.1,3.654,0.355,-1.4,97.07632,-8.14,-6.888,72.25,0,109.1,13.81,-7.42,78.1
"2009-01-04 00:08:00",510137,7.381,113.9,4.248,0.603,-1.532,97.07349,-8.15,-6.895,72.11,0,109.1,13.81,-7.43,75.9
"2009-01-04 00:08:30",510138,7.158,116.2,3.621,0.527,-1.571,97.07376,-8.15,-6.902,72.02,0,109.1,13.81,-7.43,78.2
"2009-01-04 00:09:00",510139,6.933,119.1,2.964,0.718,-1.597,97.07266,-8.15,-6.92,71.94,0,109.1,13.81,-7.43,81.1
"2009-01-04 00:09:30",510140,7.103,113.7,3.412,0.66,-1.49,97.07432,-8.15,-6.911,71.93,0,109.1,13.81,-7.43,75.7
"2009-01-04 00:10:00",510141,7.39,115.6,4.265,0.363,-1.547,97.07459,-8.15,-6.915,72.15,0,109.1,13.81,-7.43,77.6
"2009-01-04 00:10:30",510142,7.349,116.4,3.386,0.528,-1.619,97.07542,-8.15,-6.904,72.41,0,109.1,13.81,-7.42,78.4
"2009-01-04 00:11:00",510143,7.217,113.6,3.087,0.558,-1.558,97.07513,-8.15,-6.92,72.56,0,109.1,13.81,-7.42,75.6
"2009-01-04 00:11:30",510144,7.228,113.7,2.752,0.527,-1.456,97.0743,-8.15,-6.929,72.81,0,109.1,13.81,-7.43,75.7
"2009-01-04 00:12:00",510145,7.295,112.8,3.382,0.523,-1.588,97.06718,-8.17,-6.941,72.94,0,109.1,13.81,-7.44,74.8
"2009-01-04 00:12:30",510146,7.266,111.9,3.794,0.496,-1.441,97.0615,-8.18,-6.919,73.01,0,109.1,13.81,-7.46,73.9
"2009-01-04 00:13:00",510147,6.995,110.7,3.596,0.592,-1.504,97.05669,-8.19,-6.942,73.07,0,109.1,13.81,-7.47,72.7
"2009-01-04 00:13:30",510148,7.371,111.2,3.411,0.299,-1.351,97.05805,-8.19,-6.934,73.2,0,109,13.81,-7.47,73.2
"2009-01-04 00:14:00",510149,6.902,112.4,3.411,0.621,-1.654,97.05859,-8.19,-6.949,73.44,0,109.1,13.81,-7.47,74.4
"2009-01-04 00:14:30",510150,6.717,113.9,4.214,0.683,-1.715,97.05317,-8.2,-6.941,73.78,0,109,13.81,-7.48,75.9
"2009-01-04 00:15:00",510151,7.048,116.3,4.31,0.67,-1.783,97.0562,-8.2,-6.954,74.13,0,109.1,13.81,-7.47,78.3
"2009-01-04 00:15:30",510152,7.123,117.1,3.856,0.517,-1.689,97.04778,-8.22,-6.972,74.5,0,109.1,13.81,-7.49,79.1
"2009-01-04 00:16:00",510153,7.066,114.1,5.693,0.587,-1.793,97.04798,-8.22,-6.991,74.57,0,109.1,13.81,-7.49,76.1
"2009-01-04 00:16:30",510154,6.85,113.8,5.084,0.613,-1.629,97.04604,-8.22,-6.967,74.51,0,109.1,13.82,-7.50,75.8
"2009-01-04 00:17:00",510155,6.936,118.2,5.533,0.533,-1.691,97.04825,-8.22,-6.997,74.54,0,109.1,13.82,-7.49,80.2
"2009-01-04 00:17:30",510156,6.91,117.6,3.264,0.564,-1.556,97.04853,-8.22,-6.993,74.77,0,109.1,13.82,-7.49,79.6
"2009-01-04 00:18:00",510157,6.422,116.8,4.619,0.526,-1.642,97.05074,-8.21,-7.01,74.85,0,109.1,13.82,-7.49,78.8
"2009-01-04 00:18:30",510158,7.139,117.5,4.718,0.612,-1.645,97.04451,-8.23,-7.005,74.95,0,109.1,13.82,-7.50,79.5
"2009-01-04 00:19:00",510159,7.622,118.8,3.769,0.642,-1.828,97.03711,-8.24,-7.026,74.77,0,109.1,13.82,-7.52,80.8
"2009-01-04 00:19:30",510160,7.262,117.5,3.138,0.514,-1.712,97.03504,-8.25,-7.032,74.5,0,109.1,13.82,-7.53,79.5
"2009-01-04 00:20:00",510161,7.382,118.2,4.133,0.543,-1.772,97.03366,-8.25,-7.032,74.24,0,109.1,13.81,-7.53,80.2
"2009-01-04 00:20:30",510162,7.644,119.2,4.241,0.651,-1.785,97.03587,-8.25,-7.043,74.2,0,109.1,13.82,-7.52,81.2
"2009-01-04 00:21:00",510163,7.412,119.3,3.847,0.505,-1.641,97.02823,-8.27,-7.06,74.24,0,109.1,13.82,-7.54,81.3
"2009-01-04 00:21:30",510164,7.614,119.9,3.453,0.532,-1.514,97.02905,-8.26,-7.042,74.26,0,109.1,13.82,-7.54,81.9
"2009-01-04 00:22:00",510165,7.622,119.6,4.113,0.304,-1.525,97.02957,-8.26,-7.047,74.21,0,109.1,13.82,-7.54,81.6
"2009-01-04 00:22:30",510166,7.55,118.9,3.744,0.47,-1.511,97.02676,-8.27,-7.051,74.27,0,109.1,13.82,-7.55,80.9
"2009-01-04 00:23:00",510167,7.407,118.6,3.969,0.524,-1.498,97.02389,-8.28,-7.041,74.3,0,109.1,13.82,-7.56,80.6
"2009-01-04 00:23:30",510168,7.281,118.9,2.634,0.626,-1.514,97.02081,-8.29,-7.068,74.34,0,109.1,13.82,-7.56,80.9
"2009-01-04 00:24:00",510169,7.412,118,4.147,0.485,-1.612,97.02192,-8.28,-7.047,74.42,0,109.1,13.82,-7.56,80.0
"2009-01-04 00:24:30",510170,7.2,117.1,4.449,0.525,-1.541,97.02412,-8.28,-7.055,74.45,0,109.1,13.82,-7.55,79.1
"2009-01-04 00:25:00",510171,7.119,119.3,4.334,0.54,-1.597,97.02274,-8.28,-7.083,74.57,0,109.1,13.82,-7.56,81.3
"2009-01-04 00:25:30",510172,7.408,115.3,3.665,0.532,-1.429,97.02439,-8.28,-7.077,74.67,0,109.1,13.82,-7.55,77.3
"2009-01-04 00:26:00",510173,7.436,115.3,3.569,0.547,-1.58,97.02522,-8.27,-7.081,74.71,0,109.1,13.82,-7.55,77.3
"2009-01-04 00:26:30",510174,7.34,113.6,4.15,0.567,-1.537,97.02353,-8.28,-7.086,74.79,0,109.1,13.81,-7.56,75.6
"2009-01-04 00:27:00",510175,7.409,116.6,3.839,0.545,-1.611,97.01835,-8.29,-7.093,74.9,0,109.1,13.81,-7.57,78.6
"2009-01-04 00:27:30",510176,7.385,116.6,3.361,0.506,-1.536,97.01209,-8.31,-7.086,75.06,0,109.1,13.81,-7.59,78.6
"2009-01-04 00:28:00",510177,7.107,114.7,4.114,0.517,-1.707,97.0056,-8.32,-7.11,75.16,0,109.1,13.81,-7.60,76.7
"2009-01-04 00:28:30",510178,7.19,118.1,3.925,0.518,-1.738,97.00413,-8.33,-7.1,75.29,0,109.1,13.81,-7.61,80.1
"2009-01-04 00:29:00",510179,7.343,117.7,3.611,0.487,-1.671,97.0002,-8.34,-7.11,75.41,0,109.1,13.81,-7.62,79.7
"2009-01-04 00:29:30",510180,7.301,116.7,3.775,0.511,-1.649,96.99818,-8.34,-7.113,75.55,0,109.1,13.81,-7.62,78.7
"2009-01-04 00:30:00",510181,7.445,116.4,4.036,0.225,-1.631,96.99477,-8.35,-7.113,75.66,0,109.1,13.81,-7.63,78.4
"2009-01-04 00:30:30",510182,7.209,118.5,4.062,0.492,-1.652,96.99419,-8.35,-7.117,75.75,0,109.1,13.81,-7.63,80.5
"2009-01-04 00:31:00",510183,7.288,115.9,4.66,0.484,-1.622,96.99309,-8.36,-7.122,75.8,0,109.1,13.81,-7.63,77.9
"2009-01-04 00:31:30",510184,7.28,116.9,3.548,0.449,-1.509,96.99364,-8.35,-7.135,75.86,0,109.1,13.81,-7.63,78.9
"2009-01-04 00:32:00",510185,7.239,116.6,3.991,0.538,-1.608,96.99447,-8.35,-7.148,75.93,0,109.1,13.82,-7.63,78.6
"2009-01-04 00:32:30",510186,7.437,115.8,4.022,0.513,-1.618,96.99419,-8.35,-7.135,75.99,0,109.1,13.82,-7.63,77.8
"2009-01-04 00:33:00",510187,7.495,117.1,4.158,0.512,-1.721,96.99391,-8.35,-7.15,76.03,0,109.1,13.82,-7.63,79.1
"2009-01-04 00:33:30",510188,7.201,117.2,3.081,0.744,-1.749,96.9939,-8.35,-7.162,76.07,0,109,13.82,-7.63,79.2
"2009-01-04 00:34:00",510189,7.346,118.2,3.885,0.342,-1.742,96.98681,-8.37,-7.162,76.1,0,109,13.82,-7.65,80.2
"2009-01-04 00:34:30",510190,7.244,117.2,3.847,0.634,-1.697,96.978,-8.39,-7.175,76.02,0,109.1,13.82,-7.67,79.2
"2009-01-04 00:35:00",510191,7.311,116.6,3.645,0.531,-1.748,96.97659,-8.4,-7.186,75.99,0,109,13.82,-7.68,78.6
"2009-01-04 00:35:30",510192,7.167,118.1,3.129,0.497,-1.645,96.97233,-8.41,-7.2,76.04,0,109.1,13.82,-7.69,80.1
"2009-01-04 00:36:00",510193,7.166,118.4,3.554,0.537,-1.754,96.96892,-8.42,-7.214,76.07,0,109.1,13.82,-7.70,80.4
"2009-01-04 00:36:30",510194,7.314,115.3,4.323,0.564,-1.691,96.96665,-8.42,-7.186,75.97,0,109.1,13.82,-7.70,77.3
"2009-01-04 00:37:00",510195,7.338,116.4,3.937,0.506,-1.681,96.96069,-8.44,-7.217,75.89,0,109.1,13.82,-7.72,78.4
"2009-01-04 00:37:30",510196,7.496,117.6,3.777,0.536,-1.639,96.96041,-8.44,-7.21,75.77,0,109,13.82,-7.72,79.6
"2009-01-04 00:38:00",510197,7.428,117.6,3.955,0.345,-1.635,96.96041,-8.44,-7.218,75.71,0,109.1,13.82,-7.72,79.6
"2009-01-04 00:38:30",510198,7.196,116.2,3.81,0.607,-1.632,96.96041,-8.44,-7.209,75.83,0,109,13.82,-7.72,78.2
"2009-01-04 00:39:00",510199,7.405,114.6,4.274,0.609,-1.707,96.96069,-8.44,-7.24,75.85,0,109,13.82,-7.72,76.6
"2009-01-04 00:39:30",510200,7.536,113.6,3.578,0.451,-1.408,96.96095,-8.44,-7.236,75.55,0,109,13.82,-7.72,75.6
"2009-01-04 00:40:00",510201,7.435,114.7,4.15,0.515,-1.572,96.9604,-8.44,-7.253,75.28,0,109.1,13.82,-7.72,76.7
"2009-01-04 00:40:30",510202,7.256,117.4,4.311,0.519,-1.676,96.95955,-8.44,-7.238,75.3,0,109,13.82,-7.72,79.4
"2009-01-04 00:41:00",510203,7.102,118,3.974,0.528,-1.682,96.95444,-8.45,-7.247,75.3,0,109,13.82,-7.73,80.0
"2009-01-04 00:41:30",510204,7.323,117.7,3.528,0.533,-1.673,96.95102,-8.46,-7.249,75.29,0,109.1,13.82,-7.74,79.7
"2009-01-04 00:42:00",510205,7.302,117.5,4.006,0.49,-1.712,96.94901,-8.47,-7.253,75.18,0,109.1,13.83,-7.75,79.5
"2009-01-04 00:42:30",510206,7.436,116.8,3.891,0.516,-1.855,96.94502,-8.48,-7.258,75.22,0,109.1,13.82,-7.76,78.8
"2009-01-04 00:43:00",510207,7.431,115.3,4.074,0.636,-1.635,96.94026,-8.49,-7.26,75.16,0,109.1,13.82,-7.77,77.3
"2009-01-04 00:43:30",510208,7.312,115.2,1.931,0.786,-1.659,96.93882,-8.49,-7.271,74.55,0,109.1,13.82,-7.77,77.2
"2009-01-04 00:44:00",510209,7.472,113.6,4.214,0.341,-1.584,96.93513,-8.5,-7.279,74.21,0,109.1,13.82,-7.78,75.6
"2009-01-04 00:44:30",510210,7.54,112.2,4.363,0.636,-1.569,96.93344,-8.51,-7.279,74.19,0,109.1,13.81,-7.79,74.2
"2009-01-04 00:45:00",510211,7.652,112.8,4.2,0.523,-1.622,96.93116,-8.51,-7.294,74.74,0,109.1,13.82,-7.79,74.8
"2009-01-04 00:45:30",510212,7.38,114.2,3.668,0.507,-1.5,96.93081,-8.51,-7.282,74.11,0,109.1,13.82,-7.79,76.2
"2009-01-04 00:46:00",510213,7.628,112.2,4.12,0.327,-1.483,96.93026,-8.52,-7.281,73.54,0,109.1,13.82,-7.79,74.2
"2009-01-04 00:46:30",510214,7.647,109.5,4.19,0.53,-1.386,96.9291,-8.52,-7.27,73.17,0,109.1,13.82,-7.80,71.5
"2009-01-04 00:47:00",510215,7.637,110.7,4.087,0.641,-1.559,96.9291,-8.52,-7.306,73.14,0,109.1,13.82,-7.80,72.7
"2009-01-04 00:47:30",510216,7.583,107.6,4.102,0.646,-1.358,96.92966,-8.52,-7.306,74.02,0,109.1,13.82,-7.80,69.6
"2009-01-04 00:48:00",510217,7.778,110.1,4.083,0.37,-1.435,96.93076,-8.51,-7.298,74.05,0,109.1,13.82,-7.79,72.1
"2009-01-04 00:48:30",510218,7.689,109.8,3.81,0.571,-1.311,96.93047,-8.52,-7.3,74.37,0,109.1,13.82,-7.79,71.8
"2009-01-04 00:49:00",510219,7.67,110.4,3.938,0.516,-1.417,96.9302,-8.52,-7.3,74.85,0,109.1,13.82,-7.79,72.4
"2009-01-04 00:49:30",510220,7.576,113.4,3.553,0.653,-1.464,96.93213,-8.51,-7.305,75.48,0,109.1,13.82,-7.79,75.4
"2009-01-04 00:50:00",510221,7.15,109.7,4.157,0.628,-1.459,96.93269,-8.51,-7.303,75.62,0,109.1,13.82,-7.79,71.7
"2009-01-04 00:50:30",510222,7.223,113.5,4.198,0.668,-1.629,96.92935,-8.52,-7.305,74.89,0,109.1,13.82,-7.80,75.5
"2009-01-04 00:51:00",510223,7.379,111.9,4.449,0.553,-1.659,96.92248,-8.54,-7.329,75.02,0,109.1,13.83,-7.81,73.9
"2009-01-04 00:51:30",510224,7.186,113.2,3.775,0.515,-1.604,96.91196,-8.56,-7.336,75.13,0,109.1,13.83,-7.84,75.2
"2009-01-04 00:52:00",510225,7.371,114.2,4.073,0.501,-1.824,96.90829,-8.57,-7.33,75.02,0,109.1,13.83,-7.85,76.2
"2009-01-04 00:52:30",510226,7.157,114.1,4.366,0.509,-1.722,96.90459,-8.58,-7.342,75.05,0,109.1,13.83,-7.86,76.1
"2009-01-04 00:53:00",510227,7.272,115.1,3.71,0.531,-1.827,96.9026,-8.59,-7.354,74.98,0,109.1,13.83,-7.86,77.1
"2009-01-04 00:53:30",510228,7.468,116.7,3.504,0.634,-1.852,96.90176,-8.59,-7.345,75.17,0,109.1,13.82,-7.87,78.7
"2009-01-04 00:54:00",510229,7.411,116.3,3.279,0.706,-2.019,96.89917,-8.6,-7.356,75.3,0,109.1,13.82,-7.87,78.3
"2009-01-04 00:54:30",510230,7.502,114.3,4.428,0.385,-1.879,96.89973,-8.59,-7.363,75.18,0,109.1,13.83,-7.87,76.3
"2009-01-04 00:55:00",510231,7.485,110.6,4.023,0.534,-1.631,96.89971,-8.59,-7.357,74.94,0,109.1,13.83,-7.87,72.6
"2009-01-04 00:55:30",510232,7.776,108.4,3.877,0.495,-1.439,96.89944,-8.59,-7.386,73.91,0,109.1,13.83,-7.87,70.4
"2009-01-04 00:56:00",510233,7.774,107.9,4.271,0.562,-1.546,96.89916,-8.6,-7.395,73.1,0,109.1,13.83,-7.87,69.9
"2009-01-04 00:56:30",510234,7.719,105,4.166,0.598,-1.545,96.89913,-8.6,-7.392,73.02,0,109.1,13.83,-7.87,67.0
"2009-01-04 00:57:00",510235,7.89,105.3,3.559,0.725,-1.567,96.88383,-8.63,-7.408,73.06,0,109,13.83,-7.91,67.3
"2009-01-04 00:57:30",510236,7.996,103.6,3.192,0.734,-1.459,96.87614,-8.65,-7.404,73.05,0,109,13.83,-7.93,65.6
"2009-01-04 00:58:00",510237,7.975,103.9,3.723,0.644,-1.537,96.8699,-8.67,-7.421,72.96,0,109,13.83,-7.95,65.9
"2009-01-04 00:58:30",510238,8.15,103.3,3.905,0.676,-1.33,96.86648,-8.68,-7.401,73.01,0,109.1,13.83,-7.96,65.3
"2009-01-04 00:59:00",510239,8.09,103.8,3.986,0.508,-1.472,96.86648,-8.68,-7.452,72.81,0,109.1,13.83,-7.96,65.8
"2009-01-04 00:59:30",510240,8.24,102.5,3.432,0.549,-1.522,96.86648,-8.68,-7.443,72.57,0,109.1,13.83,-7.96,64.5
"2009-01-04 01:00:00",510241,8.08,102.7,4.155,0.468,-1.579,96.86648,-8.68,-7.45,72.42,0,109,13.82,-7.96,64.7
"2009-01-04 01:00:30",510242,8.14,102.1,3.675,0.655,-1.611,96.8662,-8.68,-7.456,72.32,0,109,13.82,-7.96,64.1
"2009-01-04 01:01:00",510243,8.09,103.2,4.001,0.624,-1.62,96.86535,-8.68,-7.473,72.26,0,109,13.82,-7.96,65.2
"2009-01-04 01:01:30",510244,8.03,101.5,4.486,0.703,-1.484,96.8557,-8.71,-7.469,72.76,0,109,13.83,-7.98,63.5
"2009-01-04 01:02:00",510245,8.21,100.9,4.311,0.662,-1.541,96.85172,-8.72,-7.493,73.26,0,109,13.82,-7.99,62.9
"2009-01-04 01:02:30",510246,8.37,104,3.63,0.745,-1.56,96.84888,-8.72,-7.484,73.28,0,109,13.82,-8.00,66.0
"2009-01-04 01:03:00",510247,8.2,104.6,4.071,0.744,-1.557,96.84633,-8.73,-7.497,73.19,0,109,13.82,-8.01,66.6
"2009-01-04 01:03:30",510248,8.28,106.1,3.87,0.717,-1.507,96.84151,-8.74,-7.508,73.03,0,109.1,13.82,-8.02,68.1
"2009-01-04 01:04:00",510249,8.51,101.3,2.772,0.668,-1.629,96.83641,-8.75,-7.505,72.96,0,109,13.82,-8.03,63.3
"2009-01-04 01:04:30",510250,8.21,99.9,4.005,0.636,-1.497,96.83242,-8.76,-7.52,73,0,109,13.83,-8.04,61.9
"2009-01-04 01:05:00",510251,7.919,100.7,4.452,0.716,-1.625,96.83242,-8.76,-7.525,73.14,0,109,13.83,-8.04,62.7
"2009-01-04 01:05:30",510252,7.58,97.8,3.7,0.643,-1.508,96.83242,-8.76,-7.53,72.71,0,109,13.83,-8.04,59.8
"2009-01-04 01:06:00",510253,7.73,99.9,3.619,0.569,-1.84,96.83186,-8.77,-7.543,72.67,0,109.1,13.83,-8.05,61.9
"2009-01-04 01:06:30",510254,7.768,101.7,3.645,0.621,-1.828,96.82958,-8.77,-7.557,72.95,0,109,13.83,-8.05,63.7
"2009-01-04 01:07:00",510255,7.539,103.7,4.028,0.515,-1.65,96.82107,-8.79,-7.569,73.11,0,109,13.83,-8.07,65.7
"2009-01-04 01:07:30",510256,7.909,103.3,3.566,0.626,-1.674,96.80915,-8.82,-7.573,73.07,0,109.1,13.83,-8.10,65.3
"2009-01-04 01:08:00",510257,7.785,101.1,3.447,0.713,-1.997,96.80545,-8.83,-7.571,72.94,0,109.1,13.83,-8.11,63.1
"2009-01-04 01:08:30",510258,7.312,99.2,3.094,0.714,-2.174,96.80063,-8.85,-7.601,72.98,0,109,13.83,-8.12,61.2
"2009-01-04 01:09:00",510259,7.526,98.9,3.976,0.784,-2.27,96.79836,-8.85,-7.606,72.99,0,109,13.83,-8.13,60.9
"2009-01-04 01:09:30",510260,7.746,99.4,3.321,0.714,-2.286,96.79836,-8.85,-7.591,72.85,0,109,13.83,-8.13,61.4
"2009-01-04 01:10:00",510261,8.18,102.5,4.209,0.604,-2.335,96.79836,-8.85,-7.611,72.74,0,109.1,13.83,-8.13,64.5
"2009-01-04 01:10:30",510262,8.16,99.2,3.473,0.616,-2.394,96.79836,-8.85,-7.632,72.59,0,109,13.83,-8.13,61.2
"2009-01-04 01:11:00",510263,8.03,92.6,4.182,0.482,-2.251,96.79836,-8.85,-7.601,72.45,0,109,13.83,-8.13,54.6
"2009-01-04 01:11:30",510264,8.02,91.6,3.389,0.475,-1.945,96.79807,-8.85,-7.634,72.18,0,109,13.83,-8.13,53.6
"2009-01-04 01:12:00",510265,8.18,93.3,4.395,0.726,-2.078,96.79269,-8.87,-7.641,72.05,0,109,13.83,-8.15,55.3
"2009-01-04 01:12:30",510266,8.37,90,2.843,0.808,-2.057,96.78332,-8.89,-7.64,72.13,0,109,13.83,-8.17,52.0
"2009-01-04 01:13:00",510267,7.993,89.3,3.249,0.756,-1.902,96.77878,-8.9,-7.656,72.21,0,109,13.83,-8.18,51.3
"2009-01-04 01:13:30",510268,7.982,94.7,3.368,0.662,-1.719,96.77254,-8.92,-7.664,72.31,0,109,13.83,-8.20,56.7
"2009-01-04 01:14:00",510269,8.14,90.2,4.202,0.517,-1.774,96.76799,-8.93,-7.679,72.44,0,109,13.83,-8.21,52.2
"2009-01-04 01:14:30",510270,7.5,88.1,3.553,0.815,-1.928,96.76458,-8.94,-7.679,72.52,0,109,13.83,-8.22,50.1
"2009-01-04 01:15:00",510271,7.331,86.8,4.391,0.552,-1.848,96.7643,-8.94,-7.692,72.59,0,109,13.83,-8.22,48.8
"2009-01-04 01:15:30",510272,7.658,85.9,5.609,0.521,-1.897,96.7643,-8.94,-7.695,72.65,0,109,13.83,-8.22,47.9
"2009-01-04 01:16:00",510273,7.837,86.4,4.055,0.797,-2.119,96.7643,-8.94,-7.686,72.76,0,109,13.83,-8.22,48.4
"2009-01-04 01:16:30",510274,8.01,88.2,4.171,0.639,-1.883,96.7643,-8.94,-7.691,72.88,0,109,13.83,-8.22,50.2
"2009-01-04 01:17:00",510275,8.26,91.8,3.702,0.63,-1.71,96.7643,-8.94,-7.701,72.94,0,109,13.83,-8.22,53.8
"2009-01-04 01:17:30",510276,8.4,91.1,4.043,0.64,-1.616,96.7643,-8.94,-7.714,73.08,0,109,13.83,-8.22,53.1
"2009-01-04 01:18:00",510277,7.942,87,4.231,0.582,-1.905,96.76061,-8.95,-7.709,73.33,0,109,13.83,-8.23,49.0
"2009-01-04 01:18:30",510278,8.06,85.6,2.464,0.781,-2.043,96.75068,-8.97,-7.727,73.55,0,109,13.83,-8.25,47.6
"2009-01-04 01:19:00",510279,8.07,84.7,4.02,0.632,-1.756,96.74557,-8.99,-7.715,73.65,0,109,13.83,-8.27,46.7
"2009-01-04 01:19:30",510280,8.06,89,3.234,0.687,-1.636,96.73933,-9,-7.739,73.76,0,109,13.83,-8.28,51.0
"2009-01-04 01:20:00",510281,8.28,88.7,5.364,0.772,-1.877,96.73791,-9.01,-7.74,73.8,0,109.1,13.83,-8.28,50.7
"2009-01-04 01:20:30",510282,7.78,82.9,3.453,0.74,-1.954,96.73393,-9.02,-7.736,73.88,0,109,13.83,-8.30,44.9
"2009-01-04 01:21:00",510283,7.827,83.4,3.486,0.87,-1.985,96.73222,-9.02,-7.749,73.93,0,109,13.83,-8.30,45.4
"2009-01-04 01:21:30",510284,8.06,87.5,4.628,0.768,-1.718,96.73109,-9.02,-7.756,74,0,109,13.83,-8.30,49.5
"2009-01-04 01:22:00",510285,7.916,91,6.309,0.75,-1.671,96.73138,-9.02,-7.744,74.09,0,109,13.84,-8.30,53.0
"2009-01-04 01:22:30",510286,6.816,86,4.279,0.796,-1.954,96.73081,-9.02,-7.753,74.25,0,109,13.84,-8.30,48.0
"2009-01-04 01:23:00",510287,6.797,91.2,5.18,0.752,-1.75,96.73138,-9.02,-7.754,74.34,0,109,13.84,-8.30,53.2
"2009-01-04 01:23:30",510288,6.69,90.1,4.08,0.802,-1.899,96.73138,-9.02,-7.758,74.42,0,109,13.84,-8.30,52.1
"2009-01-04 01:24:00",510289,6.863,89.8,4.187,0.73,-1.82,96.73081,-9.02,-7.77,74.35,0,109.1,13.84,-8.30,51.8
"2009-01-04 01:24:30",510290,6.551,84.2,5.075,0.724,-2.267,96.73052,-9.02,-7.76,74.35,0,109,13.84,-8.30,46.2
"2009-01-04 01:25:00",510291,6.721,88.5,3.878,0.767,-2.197,96.73081,-9.02,-7.779,74.38,0,109,13.84,-8.30,50.5
"2009-01-04 01:25:30",510292,6.986,85.9,4.389,0.731,-2.056,96.73024,-9.02,-7.769,74.37,0,109,13.84,-8.30,47.9
"2009-01-04 01:26:00",510293,6.96,86.4,2.713,0.71,-2.404,96.73052,-9.02,-7.771,74.39,0,109.1,13.84,-8.30,48.4
"2009-01-04 01:26:30",510294,6.38,88.1,4.117,0.697,-2.231,96.73024,-9.02,-7.772,74.46,0,109,13.84,-8.30,50.1
"2009-01-04 01:27:00",510295,6.461,86.9,4.597,0.764,-2.442,96.73024,-9.02,-7.786,74.5,0,109,13.84,-8.30,48.9
"2009-01-04 01:27:30",510296,7.126,85.1,3.474,0.73,-2.398,96.73024,-9.02,-7.794,74.51,0,109,13.84,-8.30,47.1
"2009-01-04 01:28:00",510297,7.245,90.7,6.361,0.749,-2.453,96.73024,-9.02,-7.777,74.82,0,109.1,13.84,-8.30,52.7
"2009-01-04 01:28:30",510298,6.98,91.3,4.192,0.834,-2.39,96.73024,-9.02,-7.79,75.04,0,109,13.84,-8.30,53.3
"2009-01-04 01:29:00",510299,7.628,94,3.104,0.83,-2.308,96.73024,-9.02,-7.781,75.19,0,109,13.84,-8.30,56.0
"2009-01-04 01:29:30",510300,7.657,88.5,2.862,0.784,-2.06,96.73024,-9.02,-7.78,75.37,0,109,13.84,-8.30,50.5
"2009-01-04 01:30:00",510301,7.642,88.7,3.018,0.683,-2.112,96.73024,-9.02,-7.788,75.58,0,109,13.84,-8.30,50.7
"2009-01-04 01:30:30",510302,7.685,88.9,3.946,0.742,-2.118,96.73024,-9.02,-7.788,75.7,0,109,13.84,-8.30,50.9
"2009-01-04 01:31:00",510303,7.751,84.8,2.406,0.798,-2.302,96.73024,-9.02,-7.8,75.94,0,109,13.84,-8.30,46.8
"2009-01-04 01:31:30",510304,7.325,82.4,3.481,0.831,-2.111,96.73024,-9.02,-7.79,76.1,0,109,13.84,-8.30,44.4
"2009-01-04 01:32:00",510305,7.181,81.9,4.089,0.747,-2.228,96.73024,-9.02,-7.772,76.13,0,109,13.84,-8.30,43.9
"2009-01-04 01:32:30",510306,6.638,85.3,3.479,0.775,-2.06,96.73024,-9.02,-7.781,76.53,0,109,13.83,-8.30,47.3
"2009-01-04 01:33:00",510307,6.965,89.4,2.742,0.849,-2.02,96.73024,-9.02,-7.773,76.71,0,109,13.83,-8.30,51.4
"2009-01-04 01:33:30",510308,7.487,91.8,4.977,0.912,-1.999,96.73024,-9.02,-7.775,76.89,0,109,13.83,-8.30,53.8
"2009-01-04 01:34:00",510309,7.226,89.7,2.144,0.709,-2.218,96.73024,-9.02,-7.772,77.46,0,109.1,13.83,-8.30,51.7
"2009-01-04 01:34:30",510310,7.094,89.5,3.345,0.687,-1.84,96.73024,-9.02,-7.771,77.97,0,109,13.83,-8.30,51.5
"2009-01-04 01:35:00",510311,7.365,92.2,4.865,0.741,-2.03,96.73024,-9.02,-7.762,78.12,0,109,13.83,-8.30,54.2
"2009-01-04 01:35:30",510312,7.141,91.6,2.125,0.794,-1.903,96.73024,-9.02,-7.779,77.97,0,109,13.83,-8.30,53.6
"2009-01-04 01:36:00",510313,7.577,93.7,3.354,0.679,-1.971,96.73024,-9.02,-7.775,78.19,0,109,13.83,-8.30,55.7
"2009-01-04 01:36:30",510314,7.146,94.4,3.469,0.826,-1.99,96.73024,-9.02,-7.775,78.57,0,109,13.83,-8.30,56.4
"2009-01-04 01:37:00",510315,7.693,97.2,3.735,0.779,-2.259,96.73024,-9.02,-7.787,78.88,0,109,13.83,-8.30,59.2
"2009-01-04 01:37:30",510316,7.77,92,3.522,0.805,-2.16,96.73024,-9.02,-7.783,78.92,0,109,13.84,-8.30,54.0
"2009-01-04 01:38:00",510317,8.07,90.7,3.568,0.737,-2.209,96.73024,-9.02,-7.776,79.31,0,109,13.84,-8.30,52.7
"2009-01-04 01:38:30",510318,8.25,87.9,4.94,0.862,-2.172,96.73024,-9.02,-7.771,79.35,0,109,13.84,-8.30,49.9
"2009-01-04 01:39:00",510319,7.887,86.8,3.112,0.822,-2.086,96.73024,-9.02,-7.78,78.82,0,109,13.84,-8.30,48.8
"2009-01-04 01:39:30",510320,7.677,93.3,6.576,0.688,-1.765,96.73024,-9.02,-7.78,78.32,0,109,13.84,-8.30,55.3
"2009-01-04 01:40:00",510321,7.528,99.6,2.905,0.706,-1.824,96.73024,-9.02,-7.787,78.95,0,109,13.84,-8.30,61.6
"2009-01-04 01:40:30",510322,7.101,98.5,3.828,0.616,-1.924,96.73024,-9.02,-7.79,79.48,0,109,13.84,-8.30,60.5
"2009-01-04 01:41:00",510323,7.308,100.4,5.458,0.787,-2.02,96.73024,-9.02,-7.791,79.86,0,109,13.84,-8.30,62.4
"2009-01-04 01:41:30",510324,7.224,107.2,3.896,0.875,-1.997,96.73024,-9.02,-7.786,80.2,0,109,13.84,-8.30,69.2
"2009-01-04 01:42:00",510325,6.527,112.9,6.082,0.76,-2.138,96.73024,-9.02,-7.799,80.5,0,109,13.84,-8.30,74.9
"2009-01-04 01:42:30",510326,6.491,114.3,3.562,0.774,-2.168,96.73024,-9.02,-7.786,80.7,0,109,13.84,-8.30,76.3
"2009-01-04 01:43:00",510327,6.615,105.4,3.273,0.792,-2.059,96.73024,-9.02,-7.797,80.9,0,109,13.84,-8.30,67.4
"2009-01-04 01:43:30",510328,6.884,106.3,3.603,0.801,-2.279,96.72939,-9.03,-7.8,81.1,0,109,13.84,-8.31,68.3
"2009-01-04 01:44:00",510329,6.901,103.2,7.259,0.695,-2.303,96.72739,-9.03,-7.811,81.2,0,109,13.84,-8.31,65.2
"2009-01-04 01:44:30",510330,6.792,91.8,4.043,0.83,-2.338,96.71804,-9.06,-7.823,81,0,109,13.84,-8.34,53.8
"2009-01-04 01:45:00",510331,6.714,91.4,4.232,0.685,-2.423,96.71322,-9.07,-7.824,80.4,0,109,13.84,-8.35,53.4
"2009-01-04 01:45:30",510332,6.691,93.9,4.897,0.696,-2.319,96.71236,-9.07,-7.841,79.72,0,109,13.84,-8.35,55.9
"2009-01-04 01:46:00",510333,7.012,96.7,5.556,0.605,-2.375,96.71236,-9.07,-7.868,79.94,0,109,13.84,-8.35,58.7
"2009-01-04 01:46:30",510334,6.597,94.3,6.434,0.732,-2.43,96.70837,-9.08,-7.84,79.76,0,109,13.84,-8.36,56.3
"2009-01-04 01:47:00",510335,7.145,89.4,4.921,0.733,-2.516,96.70356,-9.09,-7.858,78.41,0,109,13.84,-8.37,51.4
"2009-01-04 01:47:30",510336,7.408,84.7,2.084,0.804,-2.404,96.6976,-9.11,-7.871,77.35,0,109,13.84,-8.39,46.7
"2009-01-04 01:48:00",510337,7.693,87.4,4.381,0.635,-2.387,96.69617,-9.11,-7.87,76.69,0,109,13.84,-8.39,49.4